This demonstration page uses our WeatherBlox Daily Observations layout. Learn more.

Left ArrowRight Arrow

Hourly Observations for January 18, 2022

Temp ( °F °C ) Dew Point ( °F °C ) Humidity (%) Winds ( mph kmh ) Pressure ( in mb ) Visibility ( mi km ) Precip ( " mm )
12:56 am 00:56 Clear 27 -2.8 21 -6.1 78 78 Calm 29.80 1009 10 16 0.00 0.00
1:56 am 01:56 Clear 32 0 23 -5 69 69 WSW 8 13 29.78 1008 10 16 0.00 0.00
2:56 am 02:56 Clear 30 -1.1 23 -5 75 75 WSW 5 7 29.77 1008 10 16 0.00 0.00
3:56 am 03:56 Clear 31 -0.6 24 -4.4 76 76 SW 7 11 29.75 1008 10 16 0.00 0.00
4:56 am 04:56 Clear 32 0 23 -5 69 69 WSW 7 11 29.73 1007 10 16 0.00 0.00
5:56 am 05:56 Clear 28 -2.2 22 -5.6 78 78 SW 6 9 29.75 1007 10 16 0.00 0.00
6:56 am 06:56 Clear 31 -0.6 23 -5 72 72 W 8 13 29.77 1008 10 16 0.00 0.00
7:56 am 07:56 Clear 29 -1.7 19 -7.2 66 66 SW 5 7 29.75 1007 10 16 0.00 0.00
8:56 am 08:56 Sunny 34 1.1 23 -5 64 64 WSW 6 9 29.75 1007 10 16 0.00 0.00
9:56 am 09:56 Sunny 40 4.4 25 -3.9 55 55 SW 9 15 29.74 1007 10 16 0.00 0.00
10:56 am 10:56 Sunny 47 8.3 27 -2.8 46 46 W 6 9 29.75 1008 10 16 0.00 0.00
11:56 am 11:56 Sunny 57 13.9 24 -4.4 28 28 W 7 11 29.72 1007 10 16 0.00 0.00
12:56 pm 12:56 Sunny 58 14.4 27 -2.8 31 31 W 8 13 29.71 1006 10 16 0.00 0.00
1:56 pm 13:56 Sunny 64 17.8 23 -5 21 21 NNW 14 22 29.70 1006 10 16 0.00 0.00
2:56 pm 14:56 Sunny 59 15 25 -3.9 27 27 N 15 24 29.73 1007 10 16 0.00 0.00
3:56 pm 15:56 Sunny 58 14.4 26 -3.3 29 29 N 12 19 29.74 1007 10 16 0.00 0.00
4:56 pm 16:56 Sunny 55 12.8 24 -4.4 30 30 N 16 26 29.78 1009 10 16 0.00 0.00
5:56 pm 17:56 Clear 50 10 24 -4.4 36 36 N 15 24 29.83 1010 10 16 0.00 0.00
6:56 pm 18:56 Clear 44 6.7 24 -4.4 45 45 N 12 19 29.88 1012 10 16 0.00 0.00
7:56 pm 19:56 Clear 41 5 29 -1.7 62 62 NNE 23 37 29.95 1014 10 16 0.00 0.00
8:56 pm 20:56 Clear 36 2.2 28 -2.2 73 73 N 15 24 30.00 1016 10 16 0.00 0.00
9:26 pm 21:26 Mostly Cloudy 34 1 27 -3 75 75 NNE 13 20 30.05 1018 10 16 0.00 0.00
9:56 pm 21:56 Cloudy 35 1.7 27 -2.8 72 72 NNE 28 44 30.02 1017 10 16 0.00 0.00
10:18 pm 22:18 Partly Cloudy 34 1 25 -4 70 70 N 25 41 30.08 1019 10 16 0.00 0.00
10:56 pm 22:56 Clear 30 -1.1 22 -5.6 72 72 N 22 35 30.06 1018 10 16 0.00 0.00
11:56 pm 23:56 Clear 27 -2.8 18 -7.8 69 69 N 21 33 30.11 1020 10 16 0.00 0.00

Powered by AerisWeather